sat.trackr.live / text

‹ back to catalog

STARLINK-4145

NORAD 53137 · 2022-083F

PAYLOAD ACTIVE UNKNOWN

§ Identity

Operator
Country
US
Launch date
2022-07-17
Launch site
AFETR
Launch vehicle
Mass (kg)
RCS (m²)

Purposes: comms

External: N2YO · Heavens-Above · Gunter

§ Orbital elements

Epoch: 2026-05-24T20:19:46.566336Z

Period
95.44 min
Inclination
53.2136°
Eccentricity
0.0000869
Mean motion
15.08837984 rev/d
Perigee alt
539.1 km
Apogee alt
540.4 km
Semi-major
6,917.9 km
B*
3.9495e-5
RAAN
192.2360°
Arg perigee
80.9822°
Mean anomaly
279.1268°
Rev number
21,271

§ Raw data

STARLINK-41451 53137U 22083F   26144.84706674  .00000341  00000+0  39495-4 0  99942 53137  53.2136 192.2360 0000869  80.9822 279.1268 15.08837984212717

JSON: /api/v1/satellites/53137 · /tle

For live sub-satellite position, see the globe view (requires WebGL).

§ Visibility from observer

Set your observer location to see the next 7 days of passes ≥ 10°. The values pass through the URL so the page stays shareable.

No JS? Fill the form by hand. The geolocation button needs JavaScript.